This is the latest recevied weather packets stored in our database for station/object W3EJE-13. If no packets are shown the sender has not sent any weather packets the latest 10 day(s).
| Time | Temp. | Humidity | Pressure | Rain* | Wind** | Luminosity | Snow |
|---|---|---|---|---|---|---|---|
| 1777850604 | 11.11° C | 52% | 1015.4 hPa | 0 mm | - | 46 W/m² | - |
| 1777850301 | 11.67° C | 51% | 1015.9 hPa | 0 mm | - | 50 W/m² | - |
| 1777849998 | 11.67° C | 50% | 1015.5 hPa | 0 mm | - | 52 W/m² | - |
| 1777849694 | 11.67° C | 49% | 1015.6 hPa | 0 mm | - | 55 W/m² | - |
| 1777849391 | 12.22° C | 50% | 1015.6 hPa | 0 mm | - | 68 W/m² | - |
| 1777849089 | 12.22° C | 48% | 1015.4 hPa | 0 mm | - | 90 W/m² | - |
| 1777848784 | 12.22° C | 49% | 1015.5 hPa | 0 mm | - | 99 W/m² | - |
| 1777848481 | 12.22° C | 49% | 1015.7 hPa | 0 mm | - | 78 W/m² | - |
| 1777848179 | 12.22° C | 51% | 1015.7 hPa | 0 mm | - | 121 W/m² | - |
| 1777847876 | 12.22° C | 47% | 1015.9 hPa | 0 mm | - | 130 W/m² | - |
| 1777847574 | 12.22° C | 47% | 1015.9 hPa | 0 mm | - | 109 W/m² | - |
| 1777847269 | 12.78° C | 49% | 1015.9 hPa | 0 mm | - | 157 W/m² | - |
| 1777846967 | 12.78° C | 47% | 1015.7 hPa | 0 mm | - | 195 W/m² | - |
| 1777846666 | 12.78° C | 49% | 1015.6 hPa | 0 mm | - | 219 W/m² | - |
| 1777846363 | 12.78° C | 50% | 1015.5 hPa | 0 mm | - | 101 W/m² | - |
| 1777846060 | 12.78° C | 45% | 1015.5 hPa | 0 mm | - | 247 W/m² | - |
| 1777845757 | 12.78° C | 49% | 1015.6 hPa | 0 mm | - | 255 W/m² | - |
| 1777845453 | 13.33° C | 47% | 1015.6 hPa | 0 mm | - | 134 W/m² | - |
| 1777845150 | 13.33° C | 48% | 1015.7 hPa | 0 mm | - | 304 W/m² | - |
| 1777844848 | 12.78° C | 47% | 1015.6 hPa | 0 mm | - | 319 W/m² | - |
| 1777844545 | 12.78° C | 50% | 1015.9 hPa | 0 mm | - | 314 W/m² | - |
| 1777844243 | 12.78° C | 46% | 1015.7 hPa | 0 mm | - | 343 W/m² | - |
| 1777843940 | 12.78° C | 47% | 1015.7 hPa | 0 mm | - | 372 W/m² | - |
| 1777843637 | 12.78° C | 47% | 1015.9 hPa | 0 mm | - | 380 W/m² | - |
| 1777843335 | 12.78° C | 47% | 1015.9 hPa | 0 mm | - | 416 W/m² | - |
* Rain latest hour (hover to see other rain measurements)
** Current wind speed in m/s (hover to see current wind gust speed)